User: anonymous   Login
Location: Aalen
(48.8330°N, 10.1000°E)
Time: 23:24:22
(UTC+02:00)
Language:

PicSat - Orbit

View from above orbital plane
View from above orbital plane
View from above satellite
View from above satellite

Ground track
Ground track

The orbit data is extracted from the following two-line orbital elements,

1 43131U 18004W   21262.44007790  .00003253  00000-0  12147-3 0  9990
2 43131  97.4061 337.7787 0007192 221.2972 138.7725 15.28083169205112
Epoch (UTC): 19 September 2021 10:33:42
Eccentricity: 0.0007192
inclination: 97.4061°
perigee height: 476 km
apogee height: 486 km
right ascension of ascending node: 337.7787°
argument of perigee: 221.2972°
revolutions per day: 15.28083169
mean anomaly at epoch: 138.7725°
orbit number at epoch: 20511

The dashed part of the orbit path shows where the satellite is in the earth's shadow,  

DLR